星链-35794(STARLINK-35794)

导读

STARLINK-35827是美国SpaceX星链星座的卫星,于2025年11月6日发射入轨,属于星链互联网卫星项目的组网卫星。星链项目旨在构建全球覆盖的低轨卫星互联网星座,该卫星加入后进一步扩充了星座规模,助力提升星座的通信覆盖能力与服务稳定性,为全球偏远地区、海洋等场景提供宽带互联服务。

Basic Information
目录编号:
66365
目录名称:
STARLINK-35827
国际标识:
2025-254T
轨道中心:
EARTH
卫星名称:
星链-35794
卫星全名:
星链-35794(STARLINK-35794)
卫星状态:
在轨 (已飞行313 天)
发射日期:
2025-11-06 UTC
国别 :
美国 (US)
星等 :
--
This satellite is enrolled in the Space Conjunction Data Service (SCDS) and the current flight risk assessment level is: No High Risk
Orbit Information
数据来源 国际轨道数据
星历时间: 2026-09-15T05:53:16+0800
10小时前
查看轨道信息
半长轴: 6848.841km
偏心率: 0.0002435
轨道倾角: 53.158°
近地点辐角 232.491°
升交点赤经 72.313°
平近点角 127.587°
近地点: 469.036km
远地点: 472.372km
周期: 94.012分钟
每日圈数: 15.317123
Detailed Information
固有亮度:
5
最大亮度:
2.5
卫星平台:
Starlink V1.0
覆盖范围:
全球
运营商:
太空探索技术公司
运营商所在国:
美国
制造商(研发单位):
太空探索技术公司
制造商所在国:
美国
使用方式:
暂无
Satellite Introduction
Starlink 计划是 SpaceX 推出的全球卫星互联网项目,通过发射低轨道卫星,为全球尤其是偏远地区提供高速、低延迟的互联网服务。自 2019 年起,Starlink 已部署数千颗卫星,旨在缩小全球数字鸿沟,推动互联网普及。该项目还为军事、航空等行业提供通信支持,带来广泛经济效益。
2D Orbit Map
3D Orbit Map
Orbit Altitude Analysis Chart
Orbit Inclination Analysis Chart
Orbit Comprehensive Analysis Chart
View Comprehensive Chart
Conjunction Data List
Event ID Objects TCA Miss Dist (km) Collision Risk Probability Collision Risk Index (CRI) Action
CDM_260917-090905-701406-636521
OBJECT L (57014)
2026-09-17T
09:09:01+0000
1.701 km
极远距离
3.014513E-6 低风险 0.45
CDM_260915-195904-371106-636525
2026-09-15T
19:59:43+0000
1.977 km
极远距离
2.906759E-6 低风险 0.44
CDM_260915-213304-371106-636525
2026-09-15T
21:33:47+0000
1.987 km
极远距离
2.871328E-6 低风险 0.44
CDM_260916-092506-636506-821021
2026-09-16T
09:25:32+0000
2.059 km
极远距离
2.016584E-6 低风险 0.41
CDM_260915-220203-130506-636521
2026-09-15T
22:02:40+0000
2.610 km
极远距离
1.623735E-6 低风险 0.39
CDM_260917-001806-636506-876821
2026-09-17T
00:18:31+0000
2.562 km
极远距离
1.590286E-6 低风险 0.39
CDM_260916-043005-631806-636522
2026-09-16T
04:30:12+0000
2.796 km
极远距离
1.462281E-6 低风险 0.38
CDM_260915-025406-416306-636521
2026-09-15T
02:54:04+0000
2.907 km
极远距离
1.316221E-6 低风险 0.37
CDM_260915-095504-977006-636521
2026-09-15T
09:55:13+0000
2.633 km
极远距离
1.060249E-6 低风险 0.36
CDM_260916-074706-636506-904421
2026-09-16T
07:47:36+0000
2.950 km
极远距离
9.573588E-7 极低风险 0.35
Miss Distance Evolution Trend with All Objects Subscribe to Flight Safety Assessment
Collision Probability Evolution Trend with All Objects Subscribe to Flight Safety Assessment